This is the latest recevied weather packets stored in our database for station/object SA7AHC. If no packets are shown the sender has not sent any weather packets the latest 10 day(s).
| Time | Temp. | Humidity | Pressure | Rain* | Wind** | Luminosity | Snow |
|---|---|---|---|---|---|---|---|
| 1777992111 | 14.44° C | 26% | 1017.2 hPa | 0 mm | - | 510 W/m² | - |
| 1777991509 | 14.44° C | 28% | 1010.6 hPa | 0 mm | - | 533 W/m² | - |
| 1777990912 | 14.44° C | 33% | 1013 hPa | 0 mm | - | 554 W/m² | - |
| 1777989698 | 15° C | 28% | 1010.7 hPa | 0 mm | - | 591 W/m² | - |
| 1777989101 | 14.44° C | 25% | 1010.5 hPa | 0 mm | - | 612 W/m² | - |
| 1777988498 | 13.89° C | 28% | 1010.5 hPa | 0 mm | - | 628 W/m² | - |
| 1777987898 | 14.44° C | 27% | 1010.7 hPa | 0 mm | - | 643 W/m² | - |
| 1777987295 | 13.89° C | 31% | 1010.8 hPa | 0 mm | - | 657 W/m² | - |
| 1777986692 | 13.89° C | 36% | 1010.8 hPa | 0 mm | - | 677 W/m² | - |
| 1777986095 | 13.33° C | 35% | 1010.7 hPa | 0 mm | - | 691 W/m² | - |
| 1777985492 | 13.89° C | 31% | 1010.7 hPa | 0 mm | - | 714 W/m² | - |
| 1777984896 | 13.33° C | 34% | 1010.7 hPa | 0 mm | - | 752 W/m² | - |
| 1777984295 | 13.33° C | 34% | 1010.9 hPa | 0 mm | - | 742 W/m² | - |
| 1777983694 | 14.44° C | 40% | 1010.9 hPa | 0 mm | - | 791 W/m² | - |
| 1777983091 | 12.78° C | 35% | 1010.8 hPa | 0 mm | - | 765 W/m² | - |
| 1777982497 | 13.89° C | 37% | 1010.9 hPa | 0 mm | - | 803 W/m² | - |
| 1777981892 | 13.33° C | 38% | 1010.8 hPa | 0 mm | - | 803 W/m² | - |
| 1777981291 | 13.89° C | 45% | 1010.8 hPa | 0 mm | - | 805 W/m² | - |
| 1777980692 | 12.78° C | 40% | 1010.9 hPa | 0 mm | - | 830 W/m² | - |
| 1777980095 | 12.78° C | 42% | 1011 hPa | 0 mm | - | 803 W/m² | - |
| 1777979495 | 12.22° C | 42% | 1011 hPa | 0 mm | - | 788 W/m² | - |
| 1777978892 | 12.78° C | 41% | 1011 hPa | 0 mm | - | 791 W/m² | - |
| 1777978297 | 12.22° C | 42% | 1011 hPa | 0 mm | - | 800 W/m² | - |
| 1777977695 | 11.67° C | 39% | 1010.9 hPa | 0 mm | - | 773 W/m² | - |
| 1777977091 | 11.67° C | 44% | 1010.8 hPa | 0 mm | - | 772 W/m² | - |
* Rain latest hour (hover to see other rain measurements)
** Current wind speed in m/s (hover to see current wind gust speed)